This demonstration page uses our WeatherBlox Daily Observations layout. Learn more.

Hourly Observations for October 8, 2016

Temp ( °F °C ) Dew Point ( °F °C ) Humidity (%) Winds ( mph kmh ) Pressure ( in mb ) Visibility ( mi km ) Precip ( " mm )
12:15 am 00:15 Clear 49 9.4 33 0.5 54 54 S 10 17 30.24 1024 10 16.09344 0 0
12:35 am 00:35 Clear 48 9 33 0.4 55 55 S 9 15 30.24 1024 10 16.09344 0 0
12:55 am 00:55 Clear 46 8 33 0.3 59 59 S 9 15 30.24 1024 10 16.09344 0 0
1:15 am 01:15 Clear 47 8.3 33 0.3 57 57 S 9 15 30.24 1024 10 16.09344 0 0
1:35 am 01:35 Clear 46 8 32 0.2 58 58 S 9 15 30.24 1024 10 16.09344 0 0
1:55 am 01:55 Clear 46 7.5 32 0.2 60 60 SSW 7 11 30.27 1025 10 16.09344 0 0
2:15 am 02:15 Clear 45 7.2 32 0 61 61 SSW 6 9 30.27 1025 10 16.09344 0 0
2:35 am 02:35 Clear 44 6.5 32 0 64 64 SSW 8 13 30.27 1025 10 16.09344 0 0
2:55 am 02:55 Clear 43 6.2 32 0 65 65 SSW 6 9 30.27 1025 10 16.09344 0 0
3:15 am 03:15 Clear 42 5.7 32 0 67 67 SSW 8 13 30.27 1025 10 16.09344 0 0
3:35 am 03:35 Clear 44 6.5 32 0 64 64 SSW 9 15 30.27 1025 10 16.09344 0 0
3:55 am 03:55 Clear 43 6.1 32 -0.1 65 65 SSW 8 13 30.27 1025 10 16.09344 0 0
4:15 am 04:15 Clear 43 6.2 32 -0.1 64 64 SSW 9 15 30.27 1025 10 16.09344 0 0
4:35 am 04:35 Clear 43 6 32 -0.2 65 65 SSW 8 13 30.27 1025 10 16.09344 0 0
4:55 am 04:55 Clear 42 5.7 32 -0.2 66 66 SSW 9 15 30.27 1025 10 16.09344 0 0
5:15 am 05:15 Clear 42 5.4 32 -0.2 68 68 SSW 8 13 30.27 1025 10 16.09344 0 0
5:35 am 05:35 Clear 42 5.4 32 -0.2 68 68 SSW 8 13 30.27 1025 10 16.09344 0 0
5:55 am 05:55 Clear 42 5.3 32 -0.1 68 68 SW 7 11 30.27 1025 10 16.09344 0 0
6:15 am 06:15 Clear 41 5.2 32 -0.1 69 69 SSW 8 13 30.27 1025 10 16.09344 0 0
6:35 am 06:35 Clear 42 5.7 32 0 67 67 SW 8 13 30.27 1025 10 16.09344 0 0
6:55 am 06:55 Clear 42 5.6 32 0 68 68 SW 9 15 30.27 1025 10 16.09344 0 0
7:15 am 07:15 Clear 42 5.6 32 0.1 68 68 SW 8 13 30.27 1025 10 16.09344 0 0
7:35 am 07:35 Clear 42 5.5 32 0.1 69 69 SW 9 15 30.27 1025 10 16.09344 0 0
7:55 am 07:55 Sunny 42 5.5 32 0.2 69 69 SSW 9 15 30.27 1025 10 16.09344 0 0
8:15 am 08:15 Sunny 43 6.2 34 1 70 70 SSW 10 17 30.27 1025 10 16.09344 0 0
8:35 am 08:35 Sunny 46 7.7 35 1.6 66 66 SW 10 17 30.27 1025 10 16.09344 0 0
8:55 am 08:55 Sunny 48 8.7 35 1.7 62 62 SW 13 20 30.24 1024 10 16.09344 0 0
9:15 am 09:15 Sunny 49 9.7 36 2.1 59 59 SW 13 20 30.24 1024 10 16.09344 0 0
9:35 am 09:35 Sunny 52 10.9 36 2.4 56 56 SW 13 20 30.24 1024 10 16.09344 0 0
9:55 am 09:55 Sunny 54 12 37 2.5 53 53 SW 13 20 30.21 1023 10 16.09344 0 0
10:15 am 10:15 Sunny 56 13.4 37 2.5 48 48 SW 15 24 30.21 1023 10 16.09344 0 0
10:35 am 10:35 Sunny 57 14.1 36 2.4 45 45 SW 17 28 30.21 1023 10 16.09344 0 0
10:55 am 10:55 Sunny 59 15.1 37 2.5 43 43 SW 20 31 30.18 1022 10 16.09344 0 0
11:15 am 11:15 Sunny 61 16 37 2.5 41 41 SW 17 28 30.18 1022 10 16.09344 0 0
11:35 am 11:35 Sunny 62 16.9 37 2.7 39 39 SW 17 28 30.18 1022 10 16.09344 0 0
11:55 am 11:55 Sunny 64 17.8 37 2.8 37 37 SW 13 20 30.18 1022 10 16.09344 0 0
12:15 pm 12:15 Sunny 67 19.3 37 2.8 34 34 SW 15 24 30.15 1021 10 16.09344 0 0
12:35 pm 12:35 Sunny 69 20.8 36 2.2 29 29 SW 17 28 30.15 1021 10 16.09344 0 0
12:55 pm 12:55 Sunny 71 21.4 36 2.3 28 28 SW 16 26 30.09 1019 10 16.09344 0 0
1:15 pm 13:15 Sunny 71 21.8 37 2.5 28 28 SW 13 20 30.09 1019 10 16.09344 0 0
1:35 pm 13:35 Sunny 72 22.1 36 2.4 27 27 SSW 17 28 30.09 1019 10 16.09344 0 0
1:55 pm 13:55 Sunny 73 22.9 36 2.2 26 26 SW 10 17 30.09 1019 10 16.09344 0 0
2:15 pm 14:15 Sunny 74 23.4 36 2.1 25 25 SW 10 17 30.06 1018 10 16.09344 0 0
2:35 pm 14:35 Sunny 75 23.8 35 1.9 24 24 SW 10 17 30.06 1018 10 16.09344 0 0
2:55 pm 14:55 Sunny 75 24.1 36 2 24 24 SW 7 11 30.06 1018 10 16.09344 0 0
3:15 pm 15:15 Sunny 76 24.6 35 1.9 23 23 SW 10 17 30.06 1018 10 16.09344 0 0
3:35 pm 15:35 Sunny 76 24.6 35 1.8 23 23 WSW 9 15 30 1016 10 16.09344 0 0
3:55 pm 15:55 Sunny 77 24.8 35 1.8 22 22 SW 6 9 30 1016 10 16.09344 0 0
4:15 pm 16:15 Sunny 77 25 35 1.5 22 22 WSW 6 9 30 1016 10 16.09344 0 0
4:35 pm 16:35 Sunny 76 24.7 34 1.3 22 22 WSW 6 9 30 1016 10 16.09344 0 0
4:55 pm 16:55 Sunny 77 25 34 1.3 21 21 S 9 15 30 1016 10 16.09344 0 0
5:15 pm 17:15 Sunny 77 24.8 35 1.4 22 22 SSW 5 7 30 1016 10 16.09344 0 0
5:35 pm 17:35 Sunny 76 24.5 34 1.2 22 22 SSW 7 11 30 1016 10 16.09344 0 0
5:55 pm 17:55 Sunny 76 24.5 35 1.8 23 23 S 6 9 30.06 1018 10 16.09344 0 0
6:15 pm 18:15 Sunny 74 23.5 36 2.1 25 25 SSE 8 13 30.06 1018 10 16.09344 0 0
6:35 pm 18:35 Sunny 72 22.1 37 2.5 28 28 S 5 7 30.06 1018 10 16.09344 0 0
6:55 pm 18:55 Sunny 69 20.4 36 2.4 30 30 SSE 6 9 30.09 1019 10 16.09344 0 0
7:15 pm 19:15 Clear 64 17.8 36 2 35 35 SE 6 9 30.09 1019 10 16.09344 0 0
7:35 pm 19:35 Clear 63 17.1 36 2.2 37 37 SSE 6 9 30.12 1020 10 16.09344 0 0
7:55 pm 19:55 Clear 61 15.9 37 2.6 41 41 SSE 7 11 30.15 1021 10 16.09344 0 0
8:15 pm 20:15 Clear 56 13.6 36 2.1 46 46 SE 5 7 30.18 1022 7 11.265408 0 0
8:35 pm 20:35 Clear 56 13.2 37 2.5 49 49 SE 6 9 30.18 1022 7 11.265408 0 0
8:55 pm 20:55 Clear 54 12.3 37 2.7 52 52 SE 6 9 30.18 1022 10 16.09344 0 0
9:15 pm 21:15 Clear 54 12 37 2.5 53 53 SSE 7 11 30.18 1022 10 16.09344 0 0
9:35 pm 21:35 Clear 56 13.5 37 2.8 49 49 SSE 8 13 30.18 1022 10 16.09344 0 0
9:55 pm 21:55 Clear 56 13.1 36 2.2 48 48 SE 7 11 30.21 1023 10 16.09344 0 0
10:15 pm 22:15 Clear 54 12.1 35 1.8 50 50 SSE 6 9 30.21 1023 10 16.09344 0 0
10:35 pm 22:35 Clear 55 12.5 34 1.1 46 46 SSE 7 11 30.21 1023 10 16.09344 0 0
10:55 pm 22:55 Clear 53 11.6 33 0.7 47 47 SSE 6 9 30.21 1023 10 16.09344 0 0
11:15 pm 23:15 Clear 52 11.2 33 0.5 48 48 SSE 5 7 30.24 1024 10 16.09344 0 0
11:35 pm 23:35 Clear 51 10.7 34 1.3 53 53 NE 6 9 30.24 1024 10 16.09344 0 0
11:55 pm 23:55 Clear 53 11.6 38 3.4 57 57 NNE 12 19 30.24 1024 10 16.09344 0 0

Powered by AerisWeather